SAC-D

Last updated on Wed Apr 06 2016 01:38:01 GMT+0000 (Coordinated Universal Time)

1 37673U 11024A 16096.74235756 .00000268 00000-0 49989-4 0 9994 2 37673 98.0123 104.4952 0001824 115.7760 347.0345 14.72492739259132

Satellite not in orbit

SAC-D